Location: Dealu Mare
(46.0500°N, 22.8167°E)
Time: 22:41:48
(UTC+00:00)

Gbstr 26 Del rocket - Pass Details

Date: 15 January 2026
Orbit: 490 x 1217 km, 51.8° (Epoch: 13 February)

Event Time Altitude Azimuth Distance (km) Brightness Sun altitude
Exits shadow 05:06:31 - 249° (WSW) 3,881 6.7 -10.3°
Reaches altitude 10° 05:08:58 10° 251° (WSW) 3,031 6.1 -9.9°
Maximum altitude 05:16:21 75° 336° (NNW) 1,058 4.1 -8.7°
Drops below altitude 10° 05:22:33 10° 62° (ENE) 2,562 6.8 -7.7°
Sets 05:24:52 0° 65° (ENE) 3,394 7.5 -7.4°
